#timestamp,LO_Frequency,Hit,StdDev 
1582189215.5,286047284.6,N
1582189235.3,286047285.2,N
1582189255.1,286047286.0,N
1582189275.9,286047287.1,N
1582189295.7,286047286.2,N
1582189315.6,286047284.2,N
1582189335.4,286047283.1,N
1582189355.2,286047296.9,N
1582189375.1,286047276.9,N
1582189376.0,286047276.9,N
1582189395.8,286047284.7,N
1582189415.7,286047288.1,N
1582189435.5,286047293.8,N
1582189455.3,286047274.6,N
1582189475.2,286047278.5,Y
1582189495.0,286047000.2,P
1582189495.9,286047000.2,N
1582189515.8,286046999.1,N
1582189535.6,286047002.8,N
1582189555.4,286047000.5,N
1582189575.3,286046998.2,N
1582189595.1,286046996.6,N
1582189615.8,286046996.6,N
1582189635.7,286046997.3,N
1582189655.5,286046998.0,N
1582189675.4,286046999.5,N
1582189695.2,286046999.0,N
1582189715.0,286047000.4,N
1582189715.9,286047000.4,N
1582189735.8,286047000.0,N
1582189755.6,286046998.5,N
1582189775.4,286046997.8,N
1582189795.3,286046997.2,N
1582189815.1,286047000.7,N
1582189835.9,286047004.0,N
1582189855.7,286046999.0,N
1582189875.5,286047001.0,N
1582189895.4,286047000.5,N
1582189915.2,286047002.6,N
1582189935.1,286047001.6,N
1582189936.0,286047001.6,N
1582189955.8,286047002.4,N
1582189975.6,286047003.4,N
1582189995.5,286047003.8,N
1582190015.3,286046998.5,N
1582190035.1,286046998.1,N
1582190055.9,286046998.5,N
1582190075.7,286046998.4,N
1582190095.6,286046998.9,N
1582190115.4,286046999.2,N
1582190135.2,286047000.9,N
1582190155.1,286046997.7,N
1582190156.0,286046997.7,N
1582190175.8,286046998.1,N
1582190195.6,286047003.2,N
1582190215.5,286047000.5,N
1582190235.3,286047004.2,N
1582190255.2,286047004.0,N
1582190275.9,286047004.3,N
1582190295.7,286046996.6,N
1582190315.6,286046995.2,N
1582190335.4,286046994.5,N
1582190355.2,286046982.2,Y
1582190375.1,286046996.8,P
1582190376.0,286046996.8,N
1582190395.8,286046996.8,N
1582190415.7,286047000.9,N
1582190435.5,286047002.9,N
1582190455.3,286046996.7,N
1582190475.2,286046996.3,N
1582190495.0,286047000.1,N
1582190495.9,286047000.1,N
1582190515.7,286046998.6,N
1582190535.6,286047001.2,N
1582190555.4,286046998.6,N
1582190575.3,286047001.0,N
1582190595.1,286047000.3,N
1582190596.0,286047000.3,N
1582190615.8,286047002.0,N
1582190635.7,286047002.8,N
1582190655.5,286047001.1,N
1582190675.4,286046993.5,Y
1582190695.2,286046995.8,P
1582190715.0,286046998.1,N
1582190715.9,286046998.1,N
1582190735.8,286046996.2,N
1582190755.6,286046997.5,N
1582190775.5,286046995.7,Y
1582190795.3,286046995.5,P
1582190815.1,286046993.9,P
1582190835.9,286046993.4,P
1582190855.7,286046992.1,Y
1582190875.5,286046999.8,P
1582190895.4,286047002.3,N
1582190915.2,286046999.7,N
1582190935.1,286046999.8,N
1582190936.0,286046999.8,N
1582190955.8,286047002.1,N
1582190975.6,286047002.0,N
1582190995.5,286046999.7,N
1582191015.3,286046949.0,Y
1582191035.2,286047000.4,P
1582191055.0,286047001.2,P
1582191055.9,286047001.2,N
1582191075.7,286046997.7,Y
1582191095.6,286046997.6,P
1582191115.4,286046998.8,N
1582191135.3,286046998.2,N
1582191155.1,286046998.4,N
1582191175.8,286046997.7,N
1582191195.7,286046998.8,N
1582191215.5,286046998.1,N
1582191235.4,286047002.7,N
1582191255.2,286047000.8,N
1582191275.0,286046999.5,N
1582191275.9,286046999.5,N
1582191295.8,286046994.9,Y
1582191315.6,286046997.7,P
1582191335.5,286046998.3,N
1582191355.3,286046997.3,P
1582191375.1,286046998.1,N
1582191395.9,286046998.3,N
1582191415.7,286047002.6,Y
1582191435.5,286047004.1,P
1582191455.4,286047003.2,N
1582191475.2,286047004.3,N
1582191495.1,286047002.7,N
1582191496.0,286047002.7,N
1582191515.8,286046998.5,N
1582191535.6,286046998.8,N
1582191555.5,286046998.8,N
1582191575.3,286046997.2,N
1582191595.2,286046992.3,N
1582191615.9,286046990.2,N
1582191635.7,286046992.0,N
1582191655.6,286046994.8,N
1582191675.4,286046997.8,N
1582191695.2,286046993.6,N
1582191715.1,286046998.7,N
1582191716.0,286046998.7,N
1582191735.8,286047001.3,N
1582191755.7,286047001.5,N
1582191775.5,286047000.1,N
1582191795.3,286046997.2,N
1582191815.2,286046996.8,N
1582191835.0,286047000.8,N
1582191835.9,286047000.8,N
1582191855.7,286046996.8,N
1582191875.6,286047000.9,N
1582191895.4,286046999.8,N
1582191915.3,286046999.1,N
1582191935.1,286047002.6,N
1582191936.0,286047002.6,N
1582191955.8,286047002.5,N
1582191975.7,286046997.5,N
1582191995.5,286047037.5,Y
1582192015.3,286046991.9,P
1582192035.2,286046991.8,N
1582192055.0,286046991.0,N
1582192055.9,286046991.0,N
1582192075.8,286046994.0,N
1582192095.6,286046992.6,N
1582192115.4,286046993.1,N
1582192135.3,286046989.9,Y
1582192155.1,286046992.3,P
1582192175.9,286046990.6,P
1582192195.7,286046991.4,P
1582192215.5,286046989.1,Y
1582192235.4,286046995.1,P
1582192255.2,286046994.7,P
1582192275.0,286046996.3,N
1582192275.9,286046996.3,N
1582192295.8,286046998.0,N
1582192315.6,286046995.1,N
1582192335.5,286046993.6,Y
1582192355.3,286047001.2,P
1582192375.1,286046999.3,N
1582192395.9,286046999.2,N
1582192415.7,286047000.2,N
1582192435.5,286047004.0,N
1582192455.4,286047001.5,N
1582192475.2,286047001.5,N
1582192495.0,286046998.1,N
1582192496.0,286046998.1,N
1582192515.8,286047001.2,N
1582192535.6,286047001.2,N
1582192555.5,286046999.4,N
1582192575.3,286046996.3,N
1582192595.1,286046994.6,N
1582192615.9,286046993.6,N
1582192635.7,286046993.2,N
1582192655.6,286046995.9,N
1582192675.4,286046995.9,N
1582192695.2,286046991.9,N
1582192715.1,286046992.3,N
1582192716.0,286046992.3,N
1582192735.8,286046994.4,N
1582192755.6,286046997.8,N
1582192775.5,286046997.6,N
1582192795.3,286046996.4,N
